Location: Unspecified
(43.1763°N, 79.4719°W)
Time: 01:28:53
(UTC-04:00)

Okean 3 - Visible Passes

Search period start: 19 March 2019 00:00
Search period end: 29 March 2019 00:00
Orbit: 578 x 601 km, 82.5° (Epoch: 18 March)

Date Brightness Start Highest point End Pass type
(mag) Time Alt. Az. Time Alt. Az. Time Alt. Az.
19 Mar 6.4 05:33:31 10° SE 05:36:28 18° E 05:39:26 10° NE visible
20 Mar 5.7 05:40:43 10° SE 05:44:19 26° E 05:47:55 10° NNE visible
21 Mar 5.0 05:48:12 10° SSE 05:52:11 39° E 05:56:12 10° NNE visible
22 Mar 4.1 05:55:53 10° S 06:00:06 59° E 06:04:21 10° NNE visible
23 Mar 3.5 06:03:45 10° S 06:08:03 88° E 06:12:23 10° N visible
24 Mar 6.6 04:37:54 10° ESE 04:39:23 12° E 04:40:53 10° ENE visible
24 Mar 3.5 06:11:47 10° SSW 06:16:02 61° W 06:20:19 10° N visible
25 Mar 6.3 04:44:23 10° SE 04:47:11 17° E 04:50:00 10° NE visible
25 Mar 3.9 06:20:01 10° SSW 06:24:04 41° WNW 06:28:10 10° N visible
26 Mar 5.7 04:51:31 10° SE 04:55:01 25° E 04:58:31 10° NE visible
26 Mar 4.4 06:28:25 10° SW 06:32:08 28° WNW 06:35:52 10° NNW visible
27 Mar 5.0 04:59:09 11° SSE 05:02:52 36° E 05:06:50 10° NNE visible
27 Mar 4.9 06:37:04 10° WSW 06:40:14 20° WNW 06:43:26 10° NNW visible
28 Mar 4.2 05:07:47 18° SSE 05:10:47 54° E 05:15:00 10° NNE visible
